When you browse on this site, cookies collect data to enhance your experience and personalize the content and advertising you see.
Visit our Privacy Policy to learn more. By continuing to use the site, you agree to this use of cookies and data.

Météo par heure à Villarrica

Ce jour, 6 Juillet, Lundi

Heure Température Précipitation Vent Pression Humidité
00:00 +2°C° 0 mm 1 m/s 747 mmHg 92%
01:00 +2°C° 0 mm 1 m/s 747 mmHg 91%
02:00 +1°C° 0 mm 1 m/s 746 mmHg 90%
03:00 +1°C° 0 mm 1 m/s 746 mmHg 90%
04:00 +1°C° 0 mm 1 m/s 746 mmHg 89%
05:00 +1°C° 0 mm 1 m/s 746 mmHg 88%
06:00 -1°C° 0 mm 2 m/s 746 mmHg 87%
07:00 -1°C° 0 mm 2 m/s 746 mmHg 86%
08:00 +2°C° 0 mm 1 m/s 745 mmHg 82%
09:00 +4°C° 0 mm 1 m/s 745 mmHg 78%
10:00 +6°C° 0 mm 1 m/s 745 mmHg 74%
11:00 +7°C° 0 mm 1 m/s 745 mmHg 71%
12:00 +8°C° 0 mm 1 m/s 744 mmHg 68%
13:00 +10°C° 0 mm 1 m/s 744 mmHg 65%
14:00 +9°C° 0 mm 1 m/s 743 mmHg 70%
15:00 +8°C° 0 mm 1 m/s 743 mmHg 75%
16:00 +7°C° 0 mm 1 m/s 743 mmHg 81%
17:00 +6°C° 0 mm 1 m/s 744 mmHg 84%
18:00 +5°C° 0 mm 1 m/s 744 mmHg 87%
19:00 +2°C° 0 mm 2 m/s 744 mmHg 90%
20:00 +2°C° 0 mm 2 m/s 744 mmHg 88%
21:00 +2°C° 0 mm 2 m/s 744 mmHg 87%
22:00 +1°C° 0 mm 2 m/s 744 mmHg 86%
23:00 +1°C° 0 mm 2 m/s 744 mmHg 85%

Demain, 7 Juillet, Mardi

Heure Température Précipitation Vent Pression Humidité
00:00 +1°C° 0 mm 2 m/s 744 mmHg 84%
01:00 +2°C° 0 mm 1 m/s 744 mmHg 83%
02:00 +2°C° 0 mm 1 m/s 744 mmHg 83%
03:00 +3°C° 0 mm 1 m/s 744 mmHg 82%
04:00 +3°C° 0 mm 1 m/s 744 mmHg 82%
05:00 +3°C° 0 mm 1 m/s 744 mmHg 82%
06:00 +3°C° 0 mm 1 m/s 744 mmHg 81%
07:00 +3°C° 0 mm 1 m/s 744 mmHg 81%
08:00 +5°C° 0 mm 1 m/s 745 mmHg 78%
09:00 +7°C° 0 mm 1 m/s 745 mmHg 74%
10:00 +8°C° 0 mm 1 m/s 745 mmHg 71%
11:00 +8°C° 0 mm 2 m/s 744 mmHg 70%
12:00 +9°C° 0 mm 2 m/s 743 mmHg 68%
13:00 +9°C° 0 mm 3 m/s 743 mmHg 67%
14:00 +8°C° 0.6 mm 3 m/s 743 mmHg 74%
15:00 +7°C° 0.6 mm 3 m/s 742 mmHg 82%
16:00 +4°C° 0.6 mm 3 m/s 742 mmHg 89%
17:00 +4°C° 2.6 mm 3 m/s 742 mmHg 91%
18:00 +4°C° 2.6 mm 3 m/s 742 mmHg 93%
19:00 +4°C° 2.6 mm 3 m/s 742 mmHg 95%
20:00 +5°C° 2.3 mm 3 m/s 742 mmHg 96%
21:00 +5°C° 2.3 mm 3 m/s 742 mmHg 96%
22:00 +5°C° 2.3 mm 4 m/s 742 mmHg 97%
23:00 +5°C° 3 mm 3 m/s 742 mmHg 97%

Après-demain, 8 Juillet, Mercredi

Heure Température Précipitation Vent Pression Humidité
00:00 +6°C° 3 mm 2 m/s 742 mmHg 97%
01:00 +6°C° 3 mm 1 m/s 743 mmHg 97%
02:00 +6°C° 0.4 mm 1 m/s 743 mmHg 96%
03:00 +5°C° 0.4 mm 1 m/s 744 mmHg 96%
04:00 +5°C° 0.4 mm 1 m/s 744 mmHg 95%
05:00 +5°C° 0.2 mm 1 m/s 745 mmHg 95%
06:00 +4°C° 0.2 mm 1 m/s 745 mmHg 96%
07:00 +3°C° 0.2 mm 0 m/s 746 mmHg 96%
08:00 +5°C° 0.1 mm 1 m/s 746 mmHg 94%
09:00 +6°C° 0.1 mm 1 m/s 747 mmHg 93%
10:00 +7°C° 0.1 mm 1 m/s 747 mmHg 91%
11:00 +7°C° 0.5 mm 1 m/s 747 mmHg 90%
12:00 +8°C° 0.5 mm 1 m/s 747 mmHg 88%
13:00 +7°C° 0.5 mm 2 m/s 747 mmHg 87%
14:00 +8°C° 0.5 mm 1 m/s 747 mmHg 89%
15:00 +7°C° 0.5 mm 1 m/s 746 mmHg 91%
16:00 +7°C° 0.5 mm 1 m/s 746 mmHg 93%
17:00 +7°C° 0.4 mm 1 m/s 746 mmHg 93%
18:00 +6°C° 0.4 mm 1 m/s 747 mmHg 94%
19:00 +6°C° 0.4 mm 1 m/s 747 mmHg 95%
20:00 +6°C° 0.3 mm 1 m/s 746 mmHg 95%
21:00 +6°C° 0.3 mm 1 m/s 746 mmHg 95%
22:00 +6°C° 0.3 mm 1 m/s 746 mmHg 95%
23:00 +5°C° 0.2 mm 1 m/s 745 mmHg 95%

9 Juillet, Jeudi

Heure Température Précipitation Vent Pression Humidité
00:00 +5°C° 0.2 mm 1 m/s 745 mmHg 94%
01:00 +5°C° 0.2 mm 1 m/s 745 mmHg 94%
02:00 +4°C° 0.2 mm 2 m/s 744 mmHg 93%
03:00 +4°C° 0.2 mm 2 m/s 744 mmHg 93%
04:00 +4°C° 0.2 mm 2 m/s 743 mmHg 93%
05:00 +3°C° 1.5 mm 3 m/s 742 mmHg 94%
06:00 +3°C° 1.5 mm 3 m/s 742 mmHg 95%
07:00 +3°C° 1.5 mm 4 m/s 741 mmHg 96%
08:00 +3°C° 2.4 mm 4 m/s 740 mmHg 96%
09:00 +3°C° 2.4 mm 3 m/s 740 mmHg 96%
10:00 +4°C° 2.4 mm 3 m/s 739 mmHg 96%
11:00 +4°C° 2.5 mm 3 m/s 739 mmHg 96%
12:00 +5°C° 2.5 mm 4 m/s 739 mmHg 96%
13:00 +5°C° 2.5 mm 4 m/s 738 mmHg 97%
14:00 +5°C° 1.4 mm 4 m/s 739 mmHg 97%
15:00 +7°C° 1.4 mm 3 m/s 739 mmHg 97%
16:00 +7°C° 1.4 mm 3 m/s 740 mmHg 98%
17:00 +7°C° 1.2 mm 3 m/s 740 mmHg 98%
18:00 +7°C° 1.2 mm 2 m/s 741 mmHg 98%
19:00 +7°C° 1.2 mm 2 m/s 741 mmHg 98%
20:00 +7°C° 1.1 mm 2 m/s 741 mmHg 98%
21:00 +8°C° 1.1 mm 1 m/s 742 mmHg 99%
22:00 +8°C° 1.1 mm 1 m/s 742 mmHg 99%
23:00 +8°C° 0.8 mm 1 m/s 742 mmHg 99%

10 Juillet, Vendredi

Heure Température Précipitation Vent Pression Humidité
00:00 +8°C° 0.8 mm 1 m/s 742 mmHg 99%
01:00 +8°C° 0.8 mm 1 m/s 742 mmHg 99%
02:00 +8°C° 0.4 mm 1 m/s 742 mmHg 99%
03:00 +8°C° 0.4 mm 1 m/s 742 mmHg 99%
04:00 +8°C° 0.4 mm 1 m/s 741 mmHg 99%
05:00 +7°C° 0.4 mm 0 m/s 741 mmHg 99%
06:00 +7°C° 0.4 mm 0 m/s 741 mmHg 99%
07:00 +7°C° 0.4 mm 0 m/s 741 mmHg 99%
08:00 +8°C° 1 mm 0 m/s 741 mmHg 99%
09:00 +8°C° 1 mm 0 m/s 741 mmHg 99%
10:00 +8°C° 1 mm 0 m/s 741 mmHg 99%
11:00 +9°C° 1.3 mm 1 m/s 741 mmHg 99%
12:00 +10°C° 1.3 mm 1 m/s 740 mmHg 99%
13:00 +10°C° 1.3 mm 1 m/s 739 mmHg 99%
14:00 +10°C° 3.7 mm 2 m/s 739 mmHg 98%
15:00 +10°C° 3.7 mm 3 m/s 738 mmHg 98%
16:00 +11°C° 3.7 mm 4 m/s 738 mmHg 98%
17:00 +11°C° 3 mm 4 m/s 738 mmHg 98%
18:00 +11°C° 3 mm 4 m/s 738 mmHg 98%
19:00 +11°C° 3 mm 4 m/s 738 mmHg 98%
20:00 +11°C° 4 mm 4 m/s 738 mmHg 98%
21:00 +11°C° 4 mm 4 m/s 737 mmHg 98%
22:00 +11°C° 4 mm 3 m/s 737 mmHg 98%
23:00 +11°C° 5 mm 3 m/s 737 mmHg 98%

11 Juillet, Samedi

Heure Température Précipitation Vent Pression Humidité
00:00 +11°C° 5 mm 3 m/s 737 mmHg 98%
01:00 +11°C° 5 mm 4 m/s 736 mmHg 98%
02:00 +10°C° 4 mm 3 m/s 736 mmHg 98%
03:00 +10°C° 4 mm 3 m/s 736 mmHg 98%
04:00 +9°C° 4 mm 3 m/s 736 mmHg 98%
05:00 +9°C° 3.6 mm 3 m/s 737 mmHg 98%
06:00 +9°C° 3.6 mm 3 m/s 737 mmHg 98%
07:00 +8°C° 3.6 mm 3 m/s 737 mmHg 98%
08:00 +8°C° 2.1 mm 3 m/s 738 mmHg 97%
09:00 +8°C° 2.1 mm 3 m/s 739 mmHg 97%
10:00 +8°C° 2.1 mm 2 m/s 739 mmHg 97%
11:00 +8°C° 0.6 mm 2 m/s 740 mmHg 94%
12:00 +8°C° 0.6 mm 2 m/s 740 mmHg 91%
13:00 +8°C° 0.6 mm 2 m/s 740 mmHg 89%
14:00 +7°C° 0.1 mm 2 m/s 741 mmHg 89%
15:00 +7°C° 0.1 mm 2 m/s 741 mmHg 89%
16:00 +7°C° 0.1 mm 2 m/s 742 mmHg 89%
17:00 +7°C° 0.1 mm 1 m/s 742 mmHg 91%
18:00 +6°C° 0.1 mm 1 m/s 743 mmHg 92%
19:00 +5°C° 0.1 mm 1 m/s 744 mmHg 94%
20:00 +5°C° 0 mm 1 m/s 744 mmHg 94%
21:00 +3°C° 0 mm 0 m/s 744 mmHg 94%
22:00 +3°C° 0 mm 0 m/s 745 mmHg 94%
23:00 +3°C° 0 mm 0 m/s 745 mmHg 93%
Voir plus